Location: Cachan
(48.7963°N, 2.3366°E)
Time: 04:43:38
(UTC+00:00)

Daily predictions for brighter satellites

Satellite Brightness Start Highest point End
(mag) Time Altitude Azimuth Time Altitude Azimuth Time Altitude Azimuth
CENTAUR R/B 4.5 02:54:14 27° N 02:54:14 27° N 03:00:47 10° ENE
Cosmos 2219 Rocket 4.5 03:01:51 20° E 03:01:51 20° E 03:04:10 10° E
Cosmos 2333 Rocket 4.5 03:13:33 17° ESE 03:13:33 17° ESE 03:15:02 10° ESE
CZ-4C R/B 4.2 03:21:06 22° NNE 03:21:06 22° NNE 03:23:46 10° NE
USA 234 4.0 03:22:49 10° E 03:28:21 47° NE 03:28:21 47° NE
Cosmos 2082 Rocket 4.4 03:43:13 16° N 03:43:13 16° N 03:44:36 10° NNE
ATLAS 3B R/B 3.4 03:41:46 48° NNE 03:41:46 48° NNE 03:47:11 10° NE
ARIANE 5 R/B 3.7 04:02:49 10° NNE 04:05:40 34° NNE 04:05:40 34° NNE
COSMO-SKYMED 1 4.3 04:08:40 10° SE 04:12:30 32° ENE 04:14:23 22° NNE
Okean 2 Rocket 4.4 04:23:08 35° NNE 04:23:08 35° NNE 04:25:51 10° NNE
USA 267 3.8 04:29:39 10° ENE 04:36:04 54° SE 04:39:30 28° SSW
PSLV R/B 4.3 04:37:30 10° NNE 04:41:39 50° E 04:44:58 15° S
NOSS 3-1 (C) 3.6 04:43:37 47° NNW 04:43:37 47° NNW 04:49:45 10° NE
Cosmos 2219 Rocket 2.0 04:43:38 70° W 04:44:02 73° WSW 04:49:41 10° SSE
Cosmos 2360 Rocket 4.3 04:48:46 13° SSW 04:48:46 13° SSW 04:49:19 10° S
CENTAUR R/B 4.1 04:41:23 19° NNW 04:46:48 42° NNE 04:55:06 10° E
Meteor 1-16 Rocket 4.2 04:48:14 61° WNW 04:48:18 61° WNW 04:54:09 10° N
Cosmos 2237 Rocket 3.5 04:46:08 11° NNW 04:51:20 38° NE 04:56:36 10° ESE
USA 229 DEB 3.5 04:48:54 37° SW 04:51:39 84° SE 04:58:31 10° NE
USA 229 3.5 04:48:56 36° SSW 04:51:45 83° SE 04:58:37 10° NE
Cosmos 1850 Rocket 3.8 04:52:58 60° NW 04:53:49 73° WSW 04:59:01 10° SSE
Cosmos 2333 Rocket 2.9 04:55:39 35° SSW 04:55:39 35° SSW 04:59:27 10° S
Cosmos 192 4.3 04:52:42 40° SSW 04:54:29 84° ESE 04:59:28 10° NNE
BREEZE-M DEB (TANK) 2.8 04:55:39 46° SE 04:55:39 46° SE 04:57:41 10° E
CZ-4C R/B 3.6 04:51:44 10° SSE 04:56:03 73° ENE 04:58:55 20° N
DMSP B5D2-2 4.0 04:52:08 10° S 04:57:23 68° WSW 05:02:41 10° NNW
Cosmos 1633 3.8 04:56:14 20° NNE 04:58:10 38° ENE 05:01:21 10° SE
CZ-2C R/B 3.2 04:54:54 10° NNE 04:58:49 62° E 05:02:44 10° S
Cosmos 1452 Rocket 3.4 04:56:42 33° SSW 04:59:07 87° WNW 05:04:25 10° NNE
CZ-2C R/B 3.9 04:54:19 10° N 04:58:43 37° NW 04:58:43 37° NW
SKYMED 2 3.4 04:56:09 10° SSE 05:00:29 90° WSW 05:03:05 24° NNW
Cosmos 1741 Rocket 3.9 05:00:37 45° NW 05:02:05 66° WSW 05:07:18 10° S
Okean 1 Rocket 3.0 05:01:52 10° S 05:06:19 90° W 05:10:49 10° N
Cosmos 1331 Rocket 4.1 05:01:56 10° SSW 05:07:09 75° ESE 05:12:21 10° NNE
CZ-4C R/B 3.9 05:06:15 19° NNW 05:08:19 22° N 05:13:33 10° NE
COSMOS 2428 2.6 05:05:49 26° NW 05:09:07 75° WSW 05:14:47 10° SSE
Envisat 4.1 05:06:17 10° N 05:09:19 27° NNW 05:09:19 27° NNW
In-Cosmos 22 Rocket 4.2 05:06:00 10° NNW 05:11:45 88° E 05:17:18 10° S
USA 234 3.2 05:05:13 10° ESE 05:11:49 90° WSW 05:15:42 27° WNW
USA 276 2.7 05:15:24 48° ESE 05:15:24 48° ESE 05:17:31 10° ESE
Cosmos 2026 Rocket 3.9 05:11:55 10° S 05:17:58 83° E 05:24:04 10° N
NOSS 3-1 (A) 3.6 05:17:01 38° W 05:18:38 49° NW 05:24:53 10° NE
Meteor 2-10 Rocket 4.0 05:17:36 29° SW 05:20:09 45° WNW 05:25:44 10° N
Cosmos 2151 Rocket 4.5 05:21:38 31° NW 05:21:38 31° NW 05:24:36 10° N
SL-16 R/B 4.0 05:19:12 10° NNW 05:24:02 27° NE 05:28:49 10° ESE
Cosmos 2082 Rocket 4.3 05:25:04 10° NNW 05:25:36 10° NNW 05:26:28 10° NNW
USA 305 3.0 05:24:25 31° SSW 05:26:01 58° SE 05:29:45 10° ENE
SJ-12 3.8 05:22:35 10° N 05:26:39 65° WNW 05:30:43 10° SSW
Cosmos 1092 Rocket 3.9 05:21:18 10° SSW 05:27:37 78° W 05:33:57 10° N
SJ 16-02 3.6 05:24:56 10° N 05:28:26 23° NE 05:31:56 10° ESE
Cosmos 1428 Rocket 4.4 05:22:40 10° SSW 05:28:49 73° W 05:35:05 10° N
Cosmos 1892 3.6 05:32:15 30° SW 05:32:15 30° SW 05:34:41 10° SSW
ATLAS 3B R/B 3.9 05:29:00 22° NW 05:32:03 29° NNW 05:38:24 10° NE
Cosmos 2322 4.2 05:32:52 26° WNW 05:35:19 38° WSW 05:40:29 10° S
Timation 1 Rocket 4.3 05:30:07 10° SW 05:36:04 69° WNW 05:42:04 10° NNE
SL-27 R/B 3.7 05:38:07 24° NNW 05:38:07 24° NNW 05:40:09 10° N
Cosmos 2195 Rocket 4.5 05:31:46 10° SSW 05:37:54 62° WNW 05:44:10 10° N
Cosmos 1825 2.2 05:37:19 21° NNW 05:39:29 47° W 05:43:01 10° S
Cosmos 968 Rocket 3.4 05:34:30 10° NNW 05:39:48 74° WSW 05:45:01 10° SSE
Cosmos 1110 Rocket 4.1 05:38:45 10° SW 05:43:57 54° WNW 05:49:10 10° NNE
Cosmos 2297 Rocket 3.0 05:40:18 10° S 05:45:45 53° ESE 05:51:15 10° NE
ARIANE 5 R/B 3.9 05:42:56 10° NNW 05:46:00 19° NW 05:46:00 19° NW
USA 307 3.1 05:43:45 15° SW 05:46:52 59° SE 05:50:45 10° ENE
COSMO-SKYMED 1 3.3 05:44:49 10° SSW 05:48:39 30° W 05:51:38 15° NW
Cosmos 1455 2.3 05:47:59 10° SSW 05:51:34 47° WNW 05:55:13 10° N
Meteor 1-29 3.5 05:48:54 10° N 05:51:48 31° WNW 05:52:25 28° W
Cosmos 1627 Rocket 4.5 05:45:57 10° SSW 05:51:56 57° WNW 05:58:00 10° N
H-2A R/B 2.1 05:47:24 10° NNE 05:52:53 82° WNW 05:58:17 10° SSW
Cosmos 2227 Rocket 3.7 05:48:18 10° S 05:53:31 39° ESE 05:58:45 10° NE
NOSS 3-2 (A) 4.4 05:47:47 10° NW 05:55:01 67° NE 06:03:30 10° SE
TSX-5 4.1 05:52:47 11° NNW 05:56:02 62° ENE 06:00:06 10° SE
Spot 1 4.2 05:52:54 10° SSE 05:57:39 83° WSW 06:02:08 10° NNW
GENESIS II 4.4 05:55:31 20° NW 05:58:10 53° SW 06:02:03 10° SSE
Cosmos 1939 Rocket 3.2 05:54:37 10° N 05:58:15 39° WNW 06:01:50 10° SW
SMAP 4.0 05:54:32 10° NNE 05:59:06 51° E 06:03:37 10° S
Cosmos 1544 Rocket 4.1 05:57:01 10° S 06:01:19 61° E 06:05:36 10° NNE
CZ-2D R/B 3.4 05:59:16 10° NNE 06:03:02 75° ESE 06:06:47 10° S
NOSS 0 Rocket 4.2 06:00:40 10° NW 06:06:36 47° WSW 06:12:30 10° S
Cosmos 1455 Rocket 3.2 06:09:19 10° SSW 06:13:37 49° WNW 06:17:55 10° N
Meteor 1-31 Rocket 2.8 06:10:16 10° N 06:14:04 56° WNW 06:17:51 10° SSW
USA 306 2.6 06:11:12 11° WSW 06:15:01 80° NNW 06:18:59 10° ENE
USA 267 3.3 06:12:44 10° NE 06:19:12 66° NNW 06:25:39 10° WSW
Cosmos 2219 4.3 06:15:43 10° S 06:21:08 49° ESE 06:26:34 10° NE
COBE Rocket 3.9 06:16:29 10° NNE 06:21:11 85° ESE 06:25:58 10° SSW
Cosmos 1486 Rocket 4.1 06:16:12 10° NNW 06:21:32 88° ENE 06:26:52 10° SSE
AQUARIUS 4.5 06:19:29 10° NNE 06:24:00 73° ESE 06:28:28 10° S
Cosmos 1356 Rocket 3.6 06:20:57 10° N 06:24:59 74° ENE 06:29:04 10° SSE
USA 308 2.6 06:22:32 10° WSW 06:26:29 81° NNW 06:30:26 10° ENE
FALCON 9 DEB 2.6 06:23:48 10° WSW 06:26:40 88° NNW 06:29:34 10° ENE
Cosmos 2219 Rocket 3.9 06:25:25 11° WNW 06:26:58 12° W 06:29:02 10° WSW
Cosmos 1633 4.1 06:30:07 10° NW 06:31:57 14° W 06:33:47 10° WSW
CZ-2C R/B 4.4 06:30:13 10° NNW 06:32:30 15° WNW 06:34:49 10° W
Cosmos 1602 Rocket 3.6 06:28:56 10° N 06:33:19 86° ENE 06:37:42 10° S
Cosmos 2237 Rocket 2.6 06:30:07 10° NW 06:35:27 42° WSW 06:40:45 10° S
CZ-4B R/B 4.0 06:30:48 10° N 06:35:40 39° WNW 06:40:32 10° SW
Meteor PRIRODA 3.7 06:33:42 10° NNE 06:37:19 80° ESE 06:40:55 10° S
ADEOS 4.0 06:33:01 10° NNE 06:38:15 72° ESE 06:43:27 10° S
CENTAUR R/B 3.3 06:30:11 10° NW 06:38:22 82° SW 06:47:29 10° SSE
Cosmos 1553 Rocket 4.5 06:32:37 10° NNW 06:38:25 40° W 06:44:17 10° SSW
USA 81 4.2 06:33:15 10° N 06:38:35 85° E 06:43:51 10° S
ARGOS 3.2 06:35:49 10° N 06:41:11 65° WNW 06:46:33 10° SSW
USA 229 DEB 4.4 06:37:28 10° W 06:43:21 35° NNW 06:49:44 10° NE
USA 229 4.4 06:37:33 10° W 06:43:26 35° NNW 06:49:50 10° NE
Cosmos 1980 4.4 06:40:17 10° NW 06:45:19 34° WSW 06:50:19 10° SSW
Cosmos 2084 3.4 06:42:01 10° WSW 06:45:43 47° NW 06:49:23 10° NE
